loading
|
Showing default

OPS 0082 (TRANSIT 13), 2176

Orbit data source: Space-Track

OPS 0082 (TRANSIT 13), 2176 is a payload satellite owned by USN NAVAIR (US) in LEO that was launched on Thu, 19 May 1966 UTC via an SCOUT A launch vehicle from the Air Force Western Test Range (AFWTR). Payloads include a variety of satellites, spacecraft, and rockets equipped with specific instruments for various scientific and technological missions. These include communications satellites like Starlink; space stations such as the ISS; scientific satellites like the Hubble; Earth observation satellites from companies like Planet Labs, Umbra, and HawkEye 360; GPS; miniature CubeSats for education and research; and military/defense satellites.

Loading next visibility...
Loading greatness...
OPS 0082 (TRANSIT 13) details
Identifier
2176, 1966-041A
Orbit
LEO
Last TLE update13 hours ago
Origin
Flag of USUSN NAVAIR (US)
ManufacturerAPL
MissionDefense Navigation
Bus & MotorTRANSIT 5, Unknown motor
Mass51 kg wet, 51 kg dry
Launch date (UTC)
1966-05-19 (58 years ago)
Launch vehicle
SCOUT A
Launch site
Air Force Western Test Range (AFWTR)
Object type
Payload
Rocket body
Debris
Shape & HBROct Cyl + 4 Pan + 1 Rod, Unknown HBR
Radar Cross Section7.565 m², Large (>1 m²)

Expand to show TLE details & history

TLE from 13 hours ago
0 OPS 0082 (TRANSIT 13)
1 02176U 66041A   24284.46539873  .00001558  00000-0  96546-3 0  9990
2 02176  90.2208  67.7284 0065182 252.8568 106.5469 14.03819389981185
Epoch: 2024-10-10T11:10Z
Definitive object data (Epoch: 2024-10-10T11:10:10.45Z)
Latitude
Longitude-119.3647°
Altitude897.391 km
Speed7.396 km/s
True Right ascension04h 30m 54s
True Declination0° 00' 00"
Sunlit
Object was in full shadow at TLE epoch
Predictive object data (real-time)
Latitude-78.80542°
Longitude-118.2413°
Altitude867.64 km
Speed7.439 km/s
Apparent Right ascension06h 19m 44s
Apparent Declination-61° 13' 44"
Sunlit
Object is in daylight
Predictive observer data (real-time)
Local Sidereal Time18:48:50
Azimuth170.545° S
Elevation-68.224°
Doppler factor1
Orbital elements
Apogee924.865 km
Perigee830.277 km
Semi-major axis7,255.708 km
Eccentricity0.0065182
Inclination90.2208°
RAAN67.7284°
Arg. of periapsis252.8568°
True anomaly107.26122°
Mean anomaly106.5469°
Eccentric anomaly106.90423°
Mean motion3.51175 °/min
BSTAR0.00096546
Period102.51 mins
No data available

OPS 0082 (TRANSIT 13) Visibility forecast

Observer location: 39.9160978°, -105.1181434

OPS 0082 (TRANSIT 13) is not visible in the next 10 days
Span
Click to sort rows by Start time (UTC) header in descending order
Start Az.
Max El. time (UTC)
Max El. Az.
Max El.
End time (UTC)
End Az.